www.pogodaiklimat.ru

Погода и климат >> Архив погоды >> Австралия >> Victoria River Downs


ПОГОДА в Victoria River Downs

  • Прогноз погоды в Victoria River Downs
  • Монитор погоды в Victoria River Downs
  • Климат города

АРХИВ ПОГОДЫ в Victoria River Downs

Время (UTC), дата Ветер
(напр.,м/с)
 
Видим.   Явления Облачность Т
(С)
Тd
(С)
f
(%)
Тe
(С)
Тes
(С)
Комфортность P
(гПа)
Po
(гПа)
Тmin
(С)
Tmax
(С)
R
(мм)
R24
(мм)
S
(см)
23 15.10 В 2 12 км дым ясно +32.4 +19.6 47 +38 +43 очень
душно
1010.9 1000.8
02 16.10 СВ 2 н/о н/о +36.6 +15.1 28 +38 +38 очень
душно
1008.7 998.6 +27.4
05 16.10 СЗ 3 н/о н/о +40.2 +11.3 18 +39 +39 очень
жарко
1005.0 995.0
08 16.10 СЗ 7 н/о н/о +33.4 +14.5 32 +35 +35 душно 1004.9 994.9
11 16.10 СВ 2 н/о н/о +29.7 +17.5 48 +34 +34 очень
душно
1008.5 998.4
14 16.10 СВ 5 н/о н/о +27.5 +17.9 56 +32 +32 очень
душно
1009.9 999.8 +41.0
17 16.10 В 4 н/о н/о +27.1 +18.7 60 +32 +32 очень
душно
1009.5 999.4
20 16.10 СВ 2 н/о н/о +26.0 +18.2 62 +31 +31 очень
душно
1011.4 1001.3
23 16.10 СВ 5 15 км дым 8/0
[Ac trans Cc]
+28.7 +19.3 57 +34 +36 очень
душно
1012.6 1002.5
02 17.10 С 5 н/о н/о +32.8 +19.3 45 +38 +38 очень
душно
1011.5 1001.4 +26.0
08 17.10 СВ 4 н/о н/о +35.9 +13.4 26 +36 +36 очень
жарко
1006.5 996.4
11 17.10 СВ 5 н/о н/о +31.8 +13.5 33 +33 +33 жарко 1009.5 999.4
14 17.10 СВ 2 н/о н/о +29.5 +14.5 40 +32 +32 душно 1010.2 1000.1 +37.1
17 17.10 штиль 0 н/о н/о +26.4 +17.2 57 +30 +30 душно 1009.7 999.6
20 17.10 СЗ 1 н/о н/о +25.1 +16.5 59 +29 +29 душно 1010.5 1000.4
23 17.10 В 3 28 км 9/0
[Ac trans Cs]
+30.5 +16.9 44 +34 +37 очень
душно
1012.5 1013.0
02 18.10 В 3 н/о н/о +35.9 +16.1 31 +38 +38 очень
душно
1011.1 1001.0 +24.8
05 18.10 ЮВ 4 н/о н/о +36.9 +12.4 23 +37 +37 очень
жарко
1007.8 997.7
08 18.10 СЗ 4 н/о н/о +34.9 +15.3 31 +37 +37 очень
душно
1007.9 997.8
11 18.10 СЗ 4 н/о н/о +30.0 +18.4 50 +35 +35 очень
душно
1010.7 1000.6
14 18.10 штиль 0 н/о н/о +27.6 +18.0 56 +32 +32 очень
душно
1011.3 1001.2 +38.1
17 18.10 ЮЗ 1 н/о н/о +26.0 +17.6 60 +30 +30 душно 1010.3 1000.2
20 18.10 штиль 0 н/о н/о +25.3 +17.7 63 +30 +30 душно 1011.2 1001.1
23 18.10 З 3 25 км 6/0
[Ci fib]
+32.3 +18.8 45 +37 +41 очень
душно
1013.2 1003.1
02 19.10 С 4 н/о н/о +36.3 +16.5 31 +39 +39 очень
душно
1011.1 1001.0 +25.1
05 19.10 ЮВ 2 н/о н/о +37.5 +14.1 25 +38 +38 очень
жарко
1007.8 997.7
08 19.10 З 3 н/о н/о +38.1 +12.7 22 +38 +38 очень
жарко
1007.2 997.1
11 19.10 З 1 н/о н/о +32.6 +16.4 38 +36 +36 очень
душно
1009.5 999.4
14 19.10 Ю 3 н/о {осадки} н/о +30.1 +19.2 52 +36 +36 очень
душно
1010.2 1000.1 +39.3
17 19.10 СВ 2 н/о {осадки} н/о +29.6 +19.6 55 +36 +36 очень
душно
1008.7 998.6 2
20 19.10 В 1 н/о н/о +28.2 +21.5 67 +36 +36 очень
душно
1009.2 999.1
23 19.10 СЗ 4 25 км 5/0
[Ac trans]
+34.0 +18.1 39 +38 +41 очень
душно
1011.1 1001.0 2
02 20.10 СЗ 3 н/о н/о +37.3 +15.2 27 +39 +39 очень
душно
1009.7 999.6 +28.0
05 20.10 З 5 н/о н/о +36.8 +15.8 29 +39 +39 очень
душно
1006.8 996.7
08 20.10 СЗ 4 н/о н/о +33.6 +18.9 42 +39 +39 очень
душно
1007.3 997.2
11 20.10 СЗ 3 н/о н/о +31.7 +19.0 47 +37 +37 очень
душно
1009.0 998.9
14 20.10 СЗ 2 н/о н/о +30.3 +19.0 51 +36 +36 очень
душно
1009.0 998.9 +40.1
17 20.10 ЮЗ 1 н/о н/о +28.3 +20.3 62 +35 +35 очень
душно
1008.0 997.9
20 20.10 СВ 3 н/о н/о +29.1 +20.0 58 +35 +35 очень
душно
1010.6 1000.5
23 20.10 С 4 н/о н/о +32.6 +18.8 44 +38 +38 очень
душно
1012.2 1002.1
02 21.10 С 2 н/о н/о +36.5 +17.1 32 +39 +39 очень
душно
1010.7 1000.6 +27.7
05 21.10 С 3 н/о н/о +38.1 +14.0 24 +39 +39 очень
душно
1007.3 997.2
08 21.10 С 3 н/о н/о +37.7 +14.3 25 +38 +38 очень
жарко
1006.5 996.4
11 21.10 СЗ 3 н/о н/о +34.1 +14.6 31 +36 +36 душно 1008.1 998.0
14 21.10 СЗ 3 н/о н/о +32.0 +18.6 45 +37 +37 очень
душно
1008.8 998.7 +39.6
17 21.10 З 3 н/о н/о +30.1 +18.5 50 +35 +35 очень
душно
1008.0 997.9
20 21.10 штиль 0 н/о н/о +27.8 +19.1 59 +33 +33 очень
душно
1009.5 999.4
23 21.10 СЗ 4 28 км 10/3
[Sc Ac As]
+32.7 +17.3 40 +36 +37 очень
душно
1011.8 1001.7
02 22.10 З 4 н/о н/о +34.1 +18.2 39 +38 +38 очень
душно
1010.1 1000.0 +27.4
05 22.10 С 4 н/о н/о +38.5 +11.5 20 +38 +38 очень
жарко
1006.1 996.0
08 22.10 В 2 н/о н/о +32.2 +18.0 43 +37 +37 очень
душно
1007.3 997.2
11 22.10 З 3 н/о н/о +30.7 +18.1 47 +35 +35 очень
душно
1008.7 998.6

 

Местоположение метеостанции Victoria River Downs (Северная территория, Австралия): широта -16.40 долгота 131.02 высота над уровнем моря 90 м.

В архиве по умолчанию представлена погода в Victoria River Downs за последнюю неделю. Архивные данные за месяц целиком и за предыдущие месяцы, начиная с января 2011 года, Вы можете получить, выбрав интересующий диапазон дат из раскрывающегося списка и нажав кнопку "Ввод!".


*Определитесь, кто Вы:
робот инопланетянин человек

Внимание! Время в таблицах - всемирное. Для получения местного времени необходимо прибавить поправку, которая в Victoria River Downs равна 9.5 ч.

Смотрите также архив погоды в соседних городах и на ближайших метеорологических станциях:

Погода в Delamere Weapons Range (Северная территория, Австралия) (120 км)
Погода в Manbulloo Csiro (Северная территория, Австралия) (163 км)
Погода в Lajamanu (Северная территория, Австралия) (219 км)
Погода в Daly Waters Aws (Северная территория, Австралия) (251 км)
Погода в Tindal (Северная территория, Австралия) (255 км)
Погода в Kununurra (Западная Австралия, Австралия) (256 км)
Погода в Argyle Aero (Западная Австралия, Австралия) (275 км)
Погода в Cape Don Lighthouse (Северная территория, Австралия) (286 км)
Погода в Port Keats Aero (Северная территория, Австралия) (288 км)
Погода в Wyndham Aero (Западная Австралия, Австралия) (323 км)

Пояснения к столбцам:

Ветер - указаны скорость ветра в м/с - средняя за 10 мин, порывы в срок и между сроками (в фигурных скобках) и направление, откуда дует ветер: С - северный, СВ - северо-восточный, В - восточный, ЮВ - юго-восточный, Ю - южный, ЮЗ - юго-западный, З - западный, СЗ - северо-западный.
Видимость - горизонтальная дальность видимости в метрах или километрах. При видимости от 1 до 10 км при отсутствии осадков обычно наблюдается дымка, при ухудшении видимости до 1 км и менее - туман. В сухую погоду видимость может ухудшаться дымом, пылью или мглою.
Явления - указаны атмосферные явления, наблюдавшиеся в срок или в последний час перед сроком; фигурными скобками обозначены явления, наблюдавшиеся между сроками (за 1-3 часа до срока); квадратными скобками обозначены град или гололедные отложения с указанием их диаметра в мм.
Облачность - указаны через наклонную черту общая и нижняя облачность в баллах и высота нижней границы облаков в метрах; квадратными скобками обозначены формы облаков: Ci - перистые, Cs - перисто-слоистые, Cc - перисто-кучевые, Ac - высококучевые, As - высокослоистые, Sc - слоисто-кучевые, Ns - слоисто-дождевые, Cu - кучевые, Cb - кучево-дождевые. Подробнее классификацию облаков см. в Атласе облаков (PDF).
T - Температура воздуха - температура, измеренная на высоте 2 м над землей.
Td - Температура точки росы - температура, при понижении до которой содержащийся в воздухе водяной пар достигнет насыщения.
f - Относительная влажность воздуха - влажноcть воздуха, измеренная на высоте 2 м над землей.
Te - Эффективная температура - температура, которую ощущает одетый по сезону человек в тени. Характеристика душности погоды. При расчете учитывается влияние влажности воздуха и скорости ветра на теплоощущения человека.
Tes - Эффективная температура на солнце - температура, которую ощущает человек, с поправкой на солнечный нагрев. Характеристика знойности погоды. Зависит от высоты солнца над горизонтом, облачности и скорости ветра. Ночью, в пасмурную погоду, а также при ветре 12 м/с и более поправка равна нулю.
P - Атмосферное давление - приведенное к уровню моря атмосферное давление.
Po - Атмосферное давление - измеренное на уровне метеостанции атмосферное давление.
Tmin - Минимальная температура - минимум температуры воздуха на высоте 2 м над землей.
Tmax - Максимальная температура - максимум температуры воздуха на высоте 2 м над землей.
R - Количество осадков - Количество выпавших осадков за период времени, мм. При наведении курсора мыши на число - период времени, за который выпало указанное количество осадков.
R24 - Количество осадков - Количество выпавших осадков за 24 часа, мм.
S - Снежный покров - Высота снежного покрова, см. При наведении курсора мыши на число - состояние снежного покрова и степень покрытия местности в баллах.